Terminal Aerodrome Forecast
Issued by NWS

Home | Current Version | Previous Version | Text Only | Print | Product List | Glossary On
Versions: 1 2 3 4 5 6 7 8 9 10 11 12 13 14 15 16 17
000
FTUS46 KLOX 210500
TAFPRB
TAF
KPRB 210528Z 2106/2206 31010KT P6SM SCT150
     FM211200 VRB03KT P6SM BKN040
     FM211600 VRB03KT P6SM SKC
     FM212000 34009KT P6SM SKC
     FM220000 08008KT P6SM SKC
     FM220500 VRB03KT P6SM SKC=

USA.gov is the U.S. government's official web portal to all federal, state and local government web resources and services.